period_start,C,m1,H,J0,J1,J2,J3,J4,J5,JA,JB,JC,JD,JJ,JK,JN,#
2017-07-25 00:00:50,0.01,0.64,0.00,24.99,29.07,31.95,13.69,45.07,1008.80,2024.85,3264.06,2902.00,3303.15,600.03,587.59,50.49,0000 0000 0000 0000 000000
2017-07-25 00:05:51,-0.03,0.64,0.00,25.02,29.09,31.95,13.67,45.07,1008.80,2024.56,3264.01,2901.98,3303.02,599.81,587.34,50.54,0000 0000 0000 0000 000000
2017-07-25 00:10:52,-0.01,0.64,0.00,25.05,29.11,31.99,13.81,45.00,1008.79,2024.36,3263.99,2901.91,3303.00,600.38,587.78,50.59,0000 0000 0000 0000 000000
2017-07-25 00:15:53,-0.01,0.64,0.00,25.08,29.12,32.00,13.73,45.12,1008.72,2024.09,3263.95,2901.53,3302.97,600.09,587.38,50.64,0000 0000 0000 0000 000000
2017-07-25 00:20:54,0.01,0.64,0.00,25.11,29.15,32.02,13.74,45.08,1008.59,2024.02,3263.88,2901.23,3302.86,599.87,587.09,50.69,0000 0000 0000 0000 000000
2017-07-25 00:25:55,0.02,0.64,0.00,25.13,29.17,32.03,13.64,44.96,1008.51,2024.01,3263.45,2901.04,3302.32,599.81,586.79,50.74,0000 0000 0000 0000 000000
2017-07-25 00:30:57,0.00,0.64,0.00,25.16,29.20,32.07,13.77,45.12,1008.39,2024.00,3263.02,2901.00,3302.08,599.80,586.74,50.79,0000 0000 0000 0000 000000
2017-07-25 00:35:58,0.00,0.64,0.00,25.20,29.22,32.10,13.76,44.98,1008.33,2024.00,3262.99,2900.96,3301.98,599.89,586.76,50.84,0000 0000 0000 0000 000000
2017-07-25 00:40:59,0.01,0.64,0.00,25.23,29.24,32.11,13.73,44.94,1008.33,2024.00,3262.93,2900.69,3301.80,600.14,586.92,50.89,0000 0000 0000 0000 000000
2017-07-25 00:46:01,0.03,0.64,0.00,25.24,29.27,32.13,13.72,44.96,1008.32,2024.00,3262.41,2900.20,3301.30,599.96,586.73,50.94,0000 0000 0000 0000 000000
2017-07-25 00:51:02,0.00,0.64,0.00,25.26,29.29,32.16,13.72,44.98,1008.31,2023.98,3262.04,2900.02,3301.02,600.13,586.81,50.99,0000 0000 0000 0000 000000
2017-07-25 00:56:04,-0.00,0.64,0.00,25.29,29.32,32.19,13.73,44.98,1008.27,2023.94,3262.00,2900.00,3301.00,600.15,586.70,51.04,0000 0000 0000 0000 000000
2017-07-25 01:01:05,0.01,0.64,0.00,25.32,29.35,32.23,13.68,44.91,1008.17,2023.89,3261.76,2899.96,3300.81,600.10,586.49,51.09,0000 0000 0000 0000 000000
2017-07-25 01:06:06,0.00,0.64,0.00,25.35,29.37,32.26,13.75,45.01,1008.03,2023.64,3261.20,2899.62,3300.19,600.07,586.44,51.14,0000 0000 0000 0000 000000
2017-07-25 01:11:08,-0.03,0.64,0.00,25.39,29.40,32.28,13.64,44.98,1007.97,2023.17,3261.02,2899.12,3300.01,599.64,585.81,51.19,0000 0000 0000 0000 000000
2017-07-25 01:16:09,-0.00,0.64,0.00,25.42,29.42,32.30,13.69,44.93,1007.91,2023.03,3261.00,2899.00,3299.99,600.06,586.30,51.24,0000 0000 0000 0000 000000
2017-07-25 01:21:10,0.00,0.64,0.00,25.45,29.45,32.33,13.72,45.01,1007.85,2023.02,3260.91,2899.00,3299.95,599.97,585.87,51.29,0000 0000 0000 0000 000000
2017-07-25 01:26:11,0.02,0.64,0.00,25.48,29.48,32.35,13.68,44.78,1007.97,2023.00,3260.17,2898.91,3299.29,600.08,586.14,51.35,0000 0000 0000 0000 000000
2017-07-25 01:31:13,0.02,0.64,0.00,25.51,29.51,32.37,13.66,44.95,1008.12,2023.00,3259.99,2898.17,3299.00,599.91,586.07,51.40,0000 0000 0000 0000 000000
2017-07-25 01:36:14,0.01,0.64,0.00,25.55,29.54,32.40,13.72,44.89,1007.89,2022.99,3259.66,2898.00,3298.84,600.03,586.00,51.45,0000 0000 0000 0000 000000
2017-07-25 01:41:15,0.01,0.64,0.00,25.58,29.56,32.39,13.71,45.02,1007.85,2022.92,3259.07,2897.98,3298.23,600.41,586.25,51.50,0000 0000 0000 0000 000000
2017-07-25 01:46:16,-0.03,0.64,0.00,25.59,29.59,32.41,13.72,44.94,1007.84,2022.61,3259.00,2897.87,3298.00,600.34,586.16,51.55,0000 0000 0000 0000 000000
2017-07-25 01:51:17,-0.01,0.64,0.00,25.54,29.61,32.49,13.75,44.98,1007.85,2022.11,3258.98,2897.25,3297.99,600.37,586.27,51.60,0000 0000 0000 0000 000000
2017-07-25 01:56:18,0.01,0.64,0.00,25.45,29.63,32.55,13.67,44.84,1007.85,2022.01,3258.64,2897.02,3297.82,599.67,585.76,51.65,0000 0000 0000 0000 000000
2017-07-25 02:01:19,0.00,0.64,0.00,25.39,29.65,32.54,13.70,44.80,1007.83,2022.00,3258.14,2897.00,3297.68,599.93,586.18,51.70,0000 0000 0000 0000 000000
2017-07-25 02:06:20,0.00,0.64,0.00,25.35,29.65,32.51,13.75,44.83,1007.83,2022.01,3258.03,2897.00,3297.32,599.98,586.16,51.75,0000 0000 0000 0000 000000
2017-07-25 02:11:22,0.00,0.64,0.00,25.31,29.65,32.48,13.69,44.77,1007.83,2022.00,3258.00,2897.00,3297.09,599.95,586.31,51.80,0000 0000 0000 0000 000000
2017-07-25 02:16:23,0.00,0.64,0.00,25.28,29.65,32.42,13.69,44.75,1007.83,2022.01,3258.00,2897.00,3297.06,600.35,586.71,51.85,0000 0000 0000 0000 000000
2017-07-25 02:21:24,0.00,0.64,0.00,25.26,29.64,32.37,13.68,44.69,1007.83,2022.02,3257.99,2897.00,3297.07,600.26,586.70,51.90,0000 0000 0000 0000 000000
2017-07-25 02:26:25,0.00,0.64,0.00,25.25,29.62,32.31,13.72,44.73,1007.82,2022.01,3257.99,2897.00,3297.05,600.07,586.54,51.95,0000 0000 0000 0000 000000
2017-07-25 02:31:26,-0.00,0.64,0.00,25.25,29.61,32.28,13.69,44.73,1007.82,2022.04,3257.97,2897.00,3297.07,599.77,586.21,52.00,0000 0000 0000 0000 000000
2017-07-25 02:36:27,0.01,0.64,0.00,25.24,29.60,32.24,13.76,44.87,1007.79,2022.08,3257.89,2897.00,3297.03,600.39,586.75,52.05,0000 0000 0000 0000 000000
2017-07-25 02:41:29,0.00,0.64,0.00,25.24,29.59,32.16,13.72,44.81,1007.79,2022.10,3257.79,2897.00,3297.01,600.28,586.56,52.10,0000 0000 0000 0000 000000
2017-07-25 02:46:29,0.01,0.64,0.00,25.26,29.57,32.08,13.75,44.71,1007.81,2022.21,3257.68,2897.00,3297.02,600.64,586.97,52.15,0000 0000 0000 0000 000000
2017-07-25 02:51:31,0.03,0.65,0.00,25.27,29.55,32.03,13.66,44.73,1007.78,2022.43,3257.11,2897.00,3297.01,599.91,586.16,52.20,0000 0000 0000 0000 000000
2017-07-25 02:56:32,0.02,0.65,0.00,25.30,29.55,31.99,13.66,44.86,1007.80,2022.55,3257.14,2897.00,3297.01,600.00,586.30,52.25,0000 0000 0000 0000 000000
2017-07-25 03:01:33,0.02,0.65,0.00,25.32,29.52,31.97,13.70,44.73,1007.81,2022.86,3257.04,2897.00,3297.01,600.06,586.33,52.30,0000 0000 0000 0000 000000
2017-07-25 03:06:34,0.01,0.65,0.00,25.34,29.52,31.93,13.71,44.67,1007.79,2022.94,3257.03,2897.00,3297.02,600.21,586.45,52.36,0000 0000 0000 0000 000000
2017-07-25 03:11:36,0.00,0.65,0.00,25.36,29.50,31.91,13.66,44.73,1007.81,2022.97,3257.00,2897.00,3297.01,599.86,586.10,52.41,0000 0000 0000 0000 000000
2017-07-25 03:16:37,0.00,0.65,0.00,25.37,29.50,31.90,13.75,44.67,1007.80,2022.99,3257.00,2897.00,3297.01,600.41,586.55,52.46,0000 0000 0000 0000 000000
2017-07-25 03:21:39,0.00,0.65,0.00,25.40,29.50,31.88,13.59,44.74,1007.80,2022.99,3256.97,2897.00,3297.00,600.18,586.24,52.51,0000 0000 0000 0000 000000
2017-07-25 03:26:40,0.00,0.65,0.00,25.42,29.48,31.88,13.69,44.85,1007.70,2022.98,3256.71,2896.99,3297.00,600.06,586.07,52.56,0000 0000 0000 0000 000000
2017-07-25 03:31:41,0.01,0.65,0.00,25.44,29.47,31.86,13.68,44.71,1007.42,2022.99,3256.07,2896.98,3297.00,600.13,586.00,52.61,0000 0000 0000 0000 000000
2017-07-25 03:36:43,0.00,0.65,0.00,25.46,29.47,31.85,13.66,44.77,1007.38,2022.99,3256.01,2896.95,3297.00,600.01,585.86,52.66,0000 0000 0000 0000 000000
2017-07-25 03:41:44,0.00,0.65,0.00,25.47,29.47,31.85,13.67,44.83,1007.41,2022.99,3256.00,2896.94,3296.97,600.22,585.93,52.71,0000 0000 0000 0000 000000
2017-07-25 03:46:45,0.00,0.65,0.00,25.50,29.47,31.85,13.68,44.72,1007.80,2022.99,3255.99,2896.84,3296.92,599.89,586.00,52.76,0000 0000 0000 0000 000000
2017-07-25 03:51:46,0.02,0.65,0.00,25.51,29.47,31.84,13.62,44.72,1007.83,2022.99,3255.85,2896.41,3296.43,599.96,585.95,52.81,0000 0000 0000 0000 000000
2017-07-25 03:56:47,0.02,0.65,0.00,25.54,29.47,31.85,13.61,44.63,1007.83,2022.99,3255.64,2896.20,3296.24,600.03,585.90,52.86,0000 0000 0000 0000 000000
2017-07-25 04:01:48,0.01,0.65,0.00,25.57,29.47,31.84,13.69,44.63,1007.83,2023.00,3255.11,2896.08,3296.08,600.05,585.92,52.91,0000 0000 0000 0000 000000
2017-07-25 04:06:49,0.00,0.65,0.00,25.59,29.47,31.85,13.69,44.74,1007.83,2023.01,3255.02,2896.03,3296.02,600.11,585.90,52.96,0000 0000 0000 0000 000000
2017-07-25 04:11:50,0.00,0.65,0.00,25.61,29.47,31.85,13.76,44.78,1007.83,2023.00,3255.00,2896.00,3296.00,600.77,586.47,53.01,0000 0000 0000 0000 000000
2017-07-25 04:16:52,0.00,0.65,0.00,25.64,29.48,31.85,13.64,44.67,1007.69,2023.01,3254.92,2896.00,3296.00,600.21,585.78,53.06,0000 0000 0000 0000 000000
2017-07-25 04:21:53,0.01,0.65,0.00,25.65,29.49,31.87,13.62,44.67,1007.39,2023.00,3254.26,2896.00,3295.98,599.92,585.31,53.11,0000 0000 0000 0000 000000
2017-07-25 04:26:54,0.00,0.65,0.00,25.67,29.50,31.87,13.64,44.73,1007.35,2023.00,3254.02,2895.96,3295.93,600.06,585.45,53.16,0000 0000 0000 0000 000000
2017-07-25 04:31:55,0.01,0.65,0.00,25.70,29.50,31.88,13.67,44.67,1007.46,2023.00,3254.00,2895.92,3295.57,600.04,585.49,53.21,0000 0000 0000 0000 000000
2017-07-25 04:36:57,0.01,0.65,0.00,25.70,29.52,31.90,13.59,44.51,1007.81,2023.00,3253.99,2895.62,3295.14,599.85,585.38,53.26,0000 0000 0000 0000 000000
2017-07-25 04:41:58,0.01,0.66,0.00,25.72,29.52,31.91,13.67,44.60,1007.83,2023.00,3253.67,2895.12,3295.00,600.00,585.53,53.32,0000 0000 0000 0000 000000
2017-07-25 04:46:59,0.01,0.66,0.00,25.73,29.53,31.92,13.64,44.68,1007.83,2023.00,3253.16,2895.02,3294.99,599.73,585.22,53.37,0000 0000 0000 0000 000000
2017-07-25 04:52:00,0.00,0.66,0.00,25.75,29.55,31.93,13.66,44.58,1007.83,2023.00,3253.00,2895.00,3294.93,600.31,585.64,53.42,0000 0000 0000 0000 000000
2017-07-25 04:57:02,0.01,0.66,0.00,25.77,29.55,31.93,13.63,44.41,1007.83,2022.99,3252.97,2895.00,3294.54,600.00,585.41,53.47,0000 0000 0000 0000 000000
2017-07-25 05:02:03,0.02,0.66,0.00,25.77,29.56,31.95,13.63,44.42,1007.83,2022.99,3252.44,2894.93,3294.05,600.02,585.35,53.52,0000 0000 0000 0000 000000
2017-07-25 05:07:04,0.01,0.66,0.00,25.80,29.57,31.96,13.60,44.49,1007.83,2022.98,3252.03,2894.52,3294.00,599.90,585.39,53.57,0000 0000 0000 0000 000000
2017-07-25 05:12:06,0.01,0.66,0.00,25.81,29.59,31.97,13.62,44.58,1007.83,2022.97,3251.99,2894.09,3293.98,599.74,585.21,53.62,0000 0000 0000 0000 000000
2017-07-25 05:17:07,0.02,0.66,0.00,25.82,29.60,31.99,13.65,44.54,1007.83,2022.93,3251.74,2894.00,3293.56,600.27,585.64,53.67,0000 0000 0000 0000 000000
2017-07-25 05:22:08,0.01,0.66,0.00,25.84,29.61,32.00,13.69,44.61,1007.83,2022.91,3251.20,2893.99,3293.12,600.27,585.57,53.72,0000 0000 0000 0000 000000
2017-07-25 05:27:10,-0.00,0.66,0.00,25.86,29.62,32.01,13.59,44.55,1007.83,2022.80,3251.00,2893.97,3293.00,599.78,584.99,53.77,0000 0000 0000 0000 000000
2017-07-25 05:32:11,-0.00,0.66,0.00,25.88,29.64,32.02,13.69,44.41,1007.83,2022.60,3250.93,2893.63,3292.99,600.11,585.35,53.82,0000 0000 0000 0000 000000
2017-07-25 05:37:12,0.02,0.66,0.00,25.90,29.65,32.04,13.66,44.49,1007.81,2022.51,3250.37,2893.09,3292.69,599.96,585.11,53.87,0000 0000 0000 0000 000000
2017-07-25 05:42:13,-0.01,0.66,0.00,25.90,29.67,32.05,13.54,44.40,1007.74,2022.27,3250.01,2893.00,3292.08,599.53,584.65,53.92,0000 0000 0000 0000 000000
2017-07-25 05:47:14,-0.00,0.66,0.00,25.92,29.67,32.07,13.60,44.49,1007.44,2022.21,3249.99,2892.99,3292.00,599.84,584.70,53.97,0000 0000 0000 0000 000000
2017-07-25 05:52:15,0.01,0.66,0.00,25.93,29.70,32.08,13.60,44.43,1007.36,2022.09,3249.48,2892.82,3291.97,599.64,584.51,54.02,0000 0000 0000 0000 000000
2017-07-25 05:57:16,0.03,0.66,0.00,25.95,29.70,32.09,13.62,44.54,1007.36,2022.04,3249.02,2892.16,3291.34,600.34,585.12,54.07,0000 0000 0000 0000 000000
2017-07-25 06:02:18,0.00,0.66,0.00,25.95,29.72,32.11,13.60,44.48,1007.34,2022.02,3248.95,2892.00,3291.01,600.03,584.73,54.12,0000 0000 0000 0000 000000
2017-07-25 06:07:19,0.01,0.66,0.00,25.97,29.73,32.12,13.61,44.48,1007.36,2022.00,3248.42,2891.98,3290.98,599.97,584.74,54.17,0000 0000 0000 0000 000000
2017-07-25 06:12:20,0.02,0.66,0.00,25.97,29.75,32.13,13.63,44.53,1007.37,2022.00,3248.02,2891.77,3290.62,600.28,584.99,54.23,0000 0000 0000 0000 000000
2017-07-25 06:17:21,0.02,0.67,0.00,25.97,29.75,32.14,13.56,44.42,1007.50,2022.00,3247.99,2891.14,3290.04,599.97,584.79,54.28,0000 0000 0000 0000 000000
2017-07-25 06:22:23,0.01,0.67,0.00,25.98,29.77,32.17,13.59,44.39,1007.71,2022.00,3247.54,2891.00,3290.00,599.89,584.81,54.33,0000 0000 0000 0000 000000
2017-07-25 06:27:24,0.00,0.67,0.00,26.00,29.77,32.18,13.59,44.33,1007.79,2022.00,3247.01,2890.99,3289.90,599.81,584.75,54.38,0000 0000 0000 0000 000000
2017-07-25 06:32:25,0.01,0.67,0.00,26.02,29.79,32.19,13.67,44.52,1007.79,2022.00,3246.98,2890.86,3289.21,599.84,584.69,54.43,0000 0000 0000 0000 000000
2017-07-25 06:37:26,0.03,0.67,0.00,26.02,29.80,32.19,13.65,44.58,1007.82,2021.99,3246.59,2890.21,3289.00,600.05,584.96,54.48,0000 0000 0000 0000 000000
2017-07-25 06:42:28,0.01,0.67,0.00,26.03,29.81,32.22,13.62,44.44,1007.83,2021.99,3246.03,2890.01,3288.99,599.82,584.76,54.53,0000 0000 0000 0000 000000
2017-07-25 06:47:29,0.01,0.67,0.00,26.05,29.82,32.22,13.70,44.48,1007.83,2021.98,3245.99,2890.00,3288.58,600.35,585.21,54.58,0000 0000 0000 0000 000000
2017-07-25 06:52:30,0.02,0.67,0.00,26.05,29.84,32.24,13.66,44.41,1007.83,2021.97,3245.44,2889.83,3288.03,599.73,584.72,54.63,0000 0000 0000 0000 000000
2017-07-25 06:57:31,0.02,0.67,0.00,26.07,29.85,32.25,13.60,44.43,1007.83,2021.98,3245.04,2889.30,3288.00,599.86,584.68,54.68,0000 0000 0000 0000 000000
2017-07-25 07:02:32,0.00,0.67,0.00,26.08,29.86,32.27,13.69,44.47,1007.82,2021.96,3244.99,2889.02,3287.87,600.30,585.04,54.73,0000 0000 0000 0000 000000
2017-07-25 07:07:34,0.01,0.67,0.00,26.10,29.87,32.28,13.69,44.46,1007.83,2021.95,3244.71,2888.99,3287.18,600.22,584.93,54.78,0000 0000 0000 0000 000000
2017-07-25 07:12:35,0.01,0.67,0.00,26.10,29.89,32.29,13.65,44.38,1007.83,2021.82,3244.05,2888.65,3287.00,600.05,584.86,54.83,0000 0000 0000 0000 000000
2017-07-25 07:17:36,0.00,0.67,0.00,26.10,29.90,32.30,13.65,44.42,1007.83,2021.65,3243.96,2888.11,3286.83,599.98,584.70,54.88,0000 0000 0000 0000 000000
2017-07-25 07:22:37,0.00,0.67,0.00,26.12,29.91,32.31,13.57,44.41,1007.83,2021.42,3243.27,2888.00,3286.10,599.98,584.71,54.93,0000 0000 0000 0000 000000
2017-07-25 07:27:38,-0.01,0.67,0.00,26.12,29.92,32.33,13.67,44.48,1007.83,2021.22,3243.00,2887.92,3286.00,600.06,584.74,54.98,0000 0000 0000 0000 000000
2017-07-25 07:32:39,0.02,0.67,0.00,26.14,29.93,32.34,13.63,44.69,1007.83,2021.05,3242.68,2887.18,3285.49,600.05,584.72,55.03,0000 0000 0000 0000 000000
2017-07-25 07:37:40,0.10,0.68,0.00,26.15,29.95,32.35,13.63,44.41,1007.83,2021.02,3241.41,2886.02,3283.96,600.24,584.75,55.08,0000 0000 0000 0000 000000
2017-07-25 07:42:42,0.02,0.68,0.00,26.17,29.96,32.36,13.57,44.42,1007.83,2021.01,3240.14,2885.03,3282.99,600.18,584.83,55.13,0000 0000 0000 0000 000000
2017-07-25 07:47:43,0.00,0.68,0.00,26.17,29.97,32.38,13.54,44.35,1007.83,2021.00,3240.00,2884.99,3282.63,599.72,584.36,55.19,0000 0000 0000 0000 000000
2017-07-25 07:52:44,0.03,0.68,0.00,26.18,29.98,32.38,13.57,44.29,1007.83,2021.00,3239.51,2884.65,3282.06,599.99,584.56,55.24,0000 0000 0000 0000 000000
2017-07-25 07:57:45,0.02,0.68,0.00,26.20,30.00,32.39,13.59,44.44,1007.83,2021.00,3239.00,2884.01,3281.65,599.90,584.45,55.29,0000 0000 0000 0000 000000
2017-07-25 08:02:46,0.01,0.69,0.00,26.21,30.00,32.42,13.61,44.46,1007.83,2021.00,3238.79,2884.00,3281.09,600.11,584.66,55.34,0000 0000 0000 0000 000000
2017-07-25 08:07:47,0.01,0.69,0.00,26.22,30.02,32.42,13.57,44.40,1007.83,2021.00,3238.10,2883.92,3281.00,599.62,584.13,55.39,0000 0000 0000 0000 000000
2017-07-25 08:12:48,0.01,0.69,0.00,26.22,30.02,32.44,13.59,44.33,1007.83,2020.99,3238.00,2883.43,3281.00,599.86,584.47,55.44,0000 0000 0000 0000 000000
2017-07-25 08:17:50,0.01,0.69,0.00,26.24,30.05,32.44,13.58,44.39,1007.83,2020.99,3237.96,2883.05,3280.88,599.88,584.50,55.49,0000 0000 0000 0000 000000
2017-07-25 08:22:51,0.02,0.69,0.00,26.25,30.05,32.45,13.58,44.38,1007.84,2020.99,3237.42,2883.00,3280.36,600.01,584.43,55.54,0000 0000 0000 0000 000000
2017-07-25 08:27:53,0.00,0.69,0.00,26.26,30.07,32.46,13.65,44.38,1007.85,2020.99,3237.01,2882.98,3280.02,600.06,584.56,55.59,0000 0000 0000 0000 000000
2017-07-25 08:32:54,0.02,0.69,0.00,26.28,30.07,32.47,13.56,44.28,1007.85,2020.97,3236.78,2882.52,3279.96,599.45,584.04,55.64,0000 0000 0000 0000 000000
2017-07-25 08:37:56,0.03,0.69,0.00,26.30,30.09,32.49,13.65,44.33,1007.85,2020.95,3236.06,2882.03,3279.26,600.43,584.66,55.69,0000 0000 0000 0000 000000
2017-07-25 08:42:57,0.01,0.69,0.00,26.30,30.10,32.50,13.64,44.26,1007.83,2020.95,3235.73,2881.85,3278.95,600.01,584.39,55.74,0000 0000 0000 0000 000000
2017-07-25 08:47:59,0.04,0.69,0.00,26.32,30.12,32.51,13.62,44.23,1007.83,2020.87,3235.03,2881.08,3278.15,600.23,584.53,55.79,0000 0000 0000 0000 000000
2017-07-25 08:53:00,-0.01,0.70,0.00,26.33,30.13,32.53,13.57,44.29,1007.84,2020.67,3234.62,2880.97,3277.91,599.90,584.35,55.84,0000 0000 0000 0000 000000
2017-07-25 08:58:01,0.05,0.70,0.00,26.35,30.15,32.54,13.67,44.23,1007.84,2020.66,3234.04,2880.56,3277.28,600.50,584.78,55.89,0000 0000 0000 0000 000000
2017-07-25 09:03:03,-0.01,0.70,0.00,26.37,30.15,32.54,13.61,44.31,1007.84,2020.54,3233.93,2880.03,3277.00,600.07,584.35,55.94,0000 0000 0000 0000 000000
2017-07-25 09:08:04,0.02,0.70,0.00,26.38,30.17,32.57,13.62,44.23,1007.84,2020.26,3233.26,2879.75,3276.45,599.88,584.14,55.99,0000 0000 0000 0000 000000
2017-07-25 09:13:05,0.02,0.70,0.00,26.40,30.18,32.58,13.59,44.29,1007.84,2020.06,3232.58,2879.03,3275.75,600.14,584.41,56.04,0000 0000 0000 0000 000000
2017-07-25 09:18:06,0.02,0.70,0.00,26.40,30.20,32.59,13.61,44.33,1007.84,2020.04,3232.01,2878.78,3275.04,599.77,583.95,56.09,0000 0000 0000 0000 000000
2017-07-25 09:23:07,0.04,0.70,0.00,26.41,30.21,32.60,13.63,44.37,1007.85,2020.02,3231.52,2878.07,3274.53,599.98,584.16,56.15,0000 0000 0000 0000 000000
2017-07-25 09:28:09,0.01,0.70,0.00,26.42,30.22,32.62,13.59,44.41,1007.85,2020.02,3230.93,2877.93,3274.00,599.72,583.88,56.20,0000 0000 0000 0000 000000
2017-07-25 09:33:09,0.04,0.70,0.00,26.42,30.24,32.63,13.62,44.48,1007.86,2020.01,3230.16,2877.23,3273.56,599.99,584.17,56.25,0000 0000 0000 0000 000000
2017-07-25 09:38:11,0.01,0.71,0.00,26.42,30.25,32.65,13.58,44.22,1007.87,2020.01,3229.70,2876.99,3273.00,599.84,583.91,56.30,0000 0000 0000 0000 000000
2017-07-25 09:43:12,0.02,0.71,0.00,26.43,30.26,32.65,13.59,44.30,1007.95,2020.00,3229.05,2876.61,3272.78,599.94,584.15,56.35,0000 0000 0000 0000 000000
2017-07-25 09:48:14,0.02,0.71,0.00,26.45,30.27,32.67,13.60,44.32,1008.03,2020.01,3228.91,2876.07,3272.09,599.92,584.10,56.40,0000 0000 0000 0000 000000
2017-07-25 09:53:15,0.01,0.71,0.00,26.45,30.28,32.67,13.67,44.29,1007.91,2020.00,3228.11,2875.99,3271.99,600.10,584.21,56.45,0000 0000 0000 0000 000000
2017-07-25 09:58:16,0.01,0.71,0.00,26.46,30.30,32.70,13.62,44.31,1007.89,2020.00,3227.99,2875.89,3271.64,600.12,584.12,56.50,0000 0000 0000 0000 000000
2017-07-25 10:03:17,0.04,0.71,0.00,26.47,30.30,32.70,13.58,44.36,1007.95,2020.00,3227.45,2875.21,3271.05,599.70,583.82,56.55,0000 0000 0000 0000 000000
2017-07-25 10:08:19,0.00,0.71,0.00,26.49,30.32,32.72,13.59,44.23,1008.08,2020.00,3227.00,2875.00,3270.94,600.06,584.22,56.60,0000 0000 0000 0000 000000
2017-07-25 10:13:20,0.04,0.71,0.00,26.49,30.32,32.73,13.59,44.32,1008.18,2020.00,3226.39,2874.76,3270.21,600.10,584.42,56.65,0000 0000 0000 0000 000000
2017-07-25 10:18:22,0.01,0.72,0.00,26.50,30.34,32.74,13.56,44.17,1008.24,2020.00,3226.01,2874.10,3270.00,599.47,583.70,56.70,0000 0000 0000 0000 000000
2017-07-25 10:23:23,0.04,0.72,0.00,26.51,30.35,32.75,13.61,44.27,1008.30,2020.00,3225.43,2873.72,3269.44,599.95,584.25,56.75,0000 0000 0000 0000 000000
2017-07-25 10:28:24,0.04,0.72,0.00,26.52,30.36,32.76,13.64,44.24,1008.31,2020.00,3224.19,2873.02,3268.32,599.98,584.19,56.80,0000 0000 0000 0000 000000
2017-07-25 10:33:26,0.02,0.72,0.00,26.54,30.37,32.78,13.58,44.20,1008.28,2019.99,3223.82,2872.48,3268.00,599.98,584.15,56.85,0000 0000 0000 0000 000000
2017-07-25 10:38:27,0.03,0.72,0.00,26.55,30.39,32.79,13.60,44.25,1008.20,2019.98,3223.11,2872.01,3267.31,600.03,584.11,56.90,0000 0000 0000 0000 000000
2017-07-25 10:43:28,0.01,0.72,0.00,26.55,30.40,32.80,13.60,44.23,1008.05,2019.97,3222.92,2871.78,3266.97,600.09,584.06,56.95,0000 0000 0000 0000 000000
2017-07-25 10:48:30,0.04,0.73,0.00,26.56,30.41,32.81,13.63,44.27,1008.05,2019.93,3222.11,2871.05,3266.18,599.94,584.00,57.01,0000 0000 0000 0000 000000
2017-07-25 10:53:31,0.01,0.73,0.00,26.57,30.42,32.82,13.64,44.20,1008.21,2019.90,3221.79,2870.78,3265.82,599.84,583.90,57.06,0000 0000 0000 0000 000000
2017-07-25 10:58:32,0.03,0.73,0.00,26.57,30.42,32.84,13.58,44.17,1008.31,2019.87,3221.04,2870.05,3265.06,600.01,584.05,57.11,0000 0000 0000 0000 000000
2017-07-25 11:03:33,-0.00,0.73,0.00,26.59,30.45,32.84,13.64,44.26,1008.26,2019.47,3220.58,2869.61,3264.43,600.12,584.31,57.16,0000 0000 0000 0000 000000
2017-07-25 11:08:35,0.03,0.73,0.00,26.59,30.45,32.85,13.63,44.15,1008.29,2019.21,3219.69,2868.86,3263.58,599.95,584.01,57.21,0000 0000 0000 0000 000000
2017-07-25 11:13:36,0.02,0.73,0.00,26.60,30.46,32.86,13.57,44.27,1008.30,2019.06,3218.95,2868.08,3262.96,600.16,584.22,57.26,0000 0000 0000 0000 000000
2017-07-25 11:18:37,0.05,0.73,0.00,26.61,30.47,32.88,13.57,44.23,1008.31,2019.04,3217.99,2867.27,3262.07,600.19,584.30,57.31,0000 0000 0000 0000 000000
2017-07-25 11:23:38,0.05,0.74,0.00,26.61,30.47,32.88,13.60,44.21,1008.31,2019.02,3216.99,2866.62,3261.16,600.14,584.22,57.36,0000 0000 0000 0000 000000
2017-07-25 11:28:40,0.04,0.74,0.00,26.62,30.49,32.90,13.61,44.24,1008.30,2019.01,3215.95,2866.01,3260.39,599.94,583.98,57.41,0000 0000 0000 0000 000000
2017-07-25 11:33:41,0.05,0.74,0.00,26.62,30.50,32.91,13.57,44.38,1008.29,2019.01,3214.82,2865.29,3259.82,600.16,584.17,57.46,0000 0000 0000 0000 000000
2017-07-25 11:38:42,0.05,0.74,0.00,26.62,30.50,32.90,13.67,44.33,1008.30,2019.01,3213.68,2864.70,3258.97,600.51,584.43,57.51,0000 0000 0000 0000 000000
2017-07-25 11:43:43,0.04,0.75,0.00,26.63,30.50,32.92,13.60,44.26,1008.31,2019.00,3212.57,2864.02,3258.11,599.90,583.96,57.56,0000 0000 0000 0000 000000
2017-07-25 11:48:44,0.03,0.75,0.00,26.63,30.52,32.94,13.58,44.21,1008.31,2019.01,3211.87,2863.63,3257.78,599.89,583.75,57.61,0000 0000 0000 0000 000000
2017-07-25 11:53:46,0.03,0.75,0.00,26.64,30.52,32.94,13.61,44.19,1008.31,2019.00,3211.00,2863.01,3257.04,599.79,583.69,57.66,0000 0000 0000 0000 000000
2017-07-25 11:58:47,0.04,0.75,0.00,26.64,30.52,32.94,13.59,44.22,1008.33,2019.00,3210.17,2862.61,3256.64,599.90,583.90,57.71,0000 0000 0000 0000 000000
2017-07-25 12:03:48,0.03,0.75,0.00,26.64,30.53,32.94,13.68,44.24,1008.41,2019.00,3209.62,2862.03,3256.03,600.23,584.19,57.76,0000 0000 0000 0000 000000
2017-07-25 12:08:50,0.00,0.75,0.00,26.65,30.55,32.96,13.57,44.17,1008.33,2019.00,3209.00,2861.96,3255.89,599.88,583.88,57.81,0000 0000 0000 0000 000000
2017-07-25 12:13:52,0.05,0.76,0.00,26.65,30.55,32.96,13.56,44.08,1008.33,2019.00,3208.14,2861.21,3255.09,599.83,583.82,57.86,0000 0000 0000 0000 000000
2017-07-25 12:18:53,0.01,0.76,0.00,26.65,30.55,32.97,13.68,44.14,1008.32,2019.00,3207.48,2861.00,3254.98,600.30,584.26,57.92,0000 0000 0000 0000 000000
2017-07-25 12:23:54,0.03,0.76,0.00,26.65,30.55,32.98,13.55,44.25,1008.33,2019.00,3206.90,2860.78,3254.25,599.96,583.84,57.97,0000 0000 0000 0000 000000
2017-07-25 12:28:55,0.03,0.76,0.00,26.64,30.56,33.00,13.59,44.27,1008.33,2018.99,3206.07,2860.13,3253.94,599.81,583.81,58.02,0000 0000 0000 0000 000000
2017-07-25 12:33:57,0.03,0.76,0.00,26.63,30.57,32.99,13.60,44.10,1008.33,2018.99,3205.34,2859.98,3253.27,599.84,583.85,58.07,0000 0000 0000 0000 000000
2017-07-25 12:38:58,0.02,0.76,0.00,26.63,30.57,33.00,13.62,44.14,1008.32,2018.98,3204.97,2859.43,3253.00,600.07,584.05,58.12,0000 0000 0000 0000 000000
2017-07-25 12:43:59,0.02,0.76,0.00,26.64,30.57,33.00,13.66,44.17,1008.33,2018.94,3204.16,2859.01,3252.61,599.81,583.80,58.17,0000 0000 0000 0000 000000
2017-07-25 12:49:00,0.01,0.77,0.00,26.64,30.57,33.01,13.62,44.17,1008.32,2018.98,3203.84,2858.98,3252.06,600.12,584.14,58.22,0000 0000 0000 0000 000000
2017-07-25 12:54:01,0.02,0.77,0.00,26.63,30.57,33.01,13.61,44.11,1008.32,2018.96,3203.06,2858.78,3252.00,599.79,583.81,58.27,0000 0000 0000 0000 000000